アトラス彗星

C/2017 K4 ( ATLAS )

English version
Home page
Updated on May 20, 2019

---------------------------------------------------------------------

・ プロフィール

発見日 2017年5月26日
発見光度 17.0等
発見者 Asteroid Terrestrial-impact Last Alert System (ATLAS) Team

・ 写真集

・ 軌道要素

Epoch 2018 Jan. 2.0 TT = JDT 2458120.5
T 2018 Jan. 8.03399 TT                                  MPCW
q   2.6480753            (2000.0)            P               Q
n   0.00661407     Peri.   15.10927     +0.68514333     +0.68369617
a  28.1075811      Node   298.89758     -0.69452596     +0.50918738
e   0.9057879      Incl.   16.67904     -0.21957299     +0.52276931
P 149
From 419 observations 2017 May 26-2019 Jan. 27, mean residual 0".5.

・ 星図

・ 光度変化

        m1 = 9.2 + 5 logΔ + 10.0 log r(t + 50)

---------------------------------------------------------------------

軌道要素はM.P.E.C. 2019-J142に掲載されたものです。
星図はステラナビゲータ Ver.10 (アストロアーツ) で作成したものです。
光度グラフはComet for Windowsで作成したものです。

---------------------------------------------------------------------

Copyright(C) Seiichi Yoshida (comet@aerith.net). All rights reserved.